Terminal Aerodrome Forecast
Issued by NWS

Home | Current Version | Previous Version | Text Only | Print | Product List | Glossary On
Versions: 1 2 3 4 5 6 7 8 9 10 11 12 13 14 15 16 17 18 19
104
FTUS43 KLSX 151130
TAFSUS
TAF
KSUS 151130Z 1512/1612 19009KT P6SM -SHRA VCTS OVC035CB
      TEMPO 1512/1514 5SM -SHRA OVC025
     FM151400 23009KT P6SM VCSH OVC015
     FM151800 30011G19KT P6SM OVC015
     FM152100 31011G19KT P6SM SCT250
     FM160100 30007KT P6SM FEW250=

USA.gov is the U.S. government's official web portal to all federal, state and local government web resources and services.